This is the latest recevied weather packets stored in our database for station/object NO4D. If no packets are shown the sender has not sent any weather packets the latest 10 day(s).
| Time | Temp. | Humidity | Pressure | Rain* | Wind** | Luminosity | Snow |
|---|---|---|---|---|---|---|---|
| 1777895505 | 8.89° C | 92% | 1017.7 hPa | 0 mm | - | 48 W/m² | - |
| 1777895203 | 8.33° C | 93% | 1017.6 hPa | 0 mm | - | 37 W/m² | - |
| 1777894900 | 7.78° C | 94% | 1017.5 hPa | 0 mm | - | 32 W/m² | - |
| 1777894597 | 7.78° C | 95% | 1017.7 hPa | 0 mm | - | 30 W/m² | - |
| 1777894295 | 7.22° C | 96% | 1017.7 hPa | 0 mm | - | 29 W/m² | - |
| 1777893991 | 7.22° C | 96% | 1017.6 hPa | 0 mm | - | 27 W/m² | - |
| 1777893688 | 6.67° C | 96% | 1017.8 hPa | 0 mm | - | 26 W/m² | - |
| 1777893384 | 6.67° C | 96% | 1017.8 hPa | 0 mm | - | 25 W/m² | - |
| 1777893080 | 6.67° C | 96% | 1017.9 hPa | 0 mm | - | 23 W/m² | - |
| 1777892778 | 6.67° C | 96% | 1017.7 hPa | 0 mm | - | 19 W/m² | - |
| 1777892474 | 6.67° C | 97% | 1017.5 hPa | 0 mm | - | 17 W/m² | - |
| 1777892169 | 6.67° C | 97% | 1017.6 hPa | 0 mm | - | 12 W/m² | - |
| 1777891866 | 6.11° C | 96% | 1017.6 hPa | 0 mm | - | 10 W/m² | - |
| 1777891563 | 6.11° C | 96% | 1017.6 hPa | 0 mm | - | 6 W/m² | - |
| 1777891260 | 6.11° C | 96% | 1017.4 hPa | 0 mm | - | 3 W/m² | - |
| 1777890959 | 6.11° C | 96% | 1017.4 hPa | 0 mm | - | 1 W/m² | - |
| 1777890655 | 6.67° C | 96% | 1017.4 hPa | 0 mm | - | 0 W/m² | - |
| 1777890350 | 6.67° C | 96% | 1017.4 hPa | 0 mm | - | 0 W/m² | - |
| 1777890047 | 6.67° C | 96% | 1017.6 hPa | 0 mm | - | 0 W/m² | - |
| 1777889744 | 6.67° C | 96% | 1017.5 hPa | 0 mm | - | 0 W/m² | - |
| 1777889442 | 6.67° C | 96% | 1017.3 hPa | 0 mm | - | 0 W/m² | - |
| 1777889139 | 6.67° C | 96% | 1017.6 hPa | 0 mm | - | 0 W/m² | - |
| 1777888837 | 6.67° C | 96% | 1017.5 hPa | 0 mm | - | 0 W/m² | - |
| 1777888533 | 6.67° C | 95% | 1017.4 hPa | 0 mm | - | 0 W/m² | - |
| 1777888229 | 6.67° C | 95% | 1017.6 hPa | 0 mm | - | 0 W/m² | - |
* Rain latest hour (hover to see other rain measurements)
** Current wind speed in m/s (hover to see current wind gust speed)